Showing default

KORSAT-4, 66293

Orbit data source: Space-Track

KORSAT-4, 66293 is a payload satellite owned by DAPA (KR) in LEO that was launched on Sun, 02 Nov 2025 UTC via an FALCON 9 launch vehicle from the Air Force Eastern Test Range (AFETR). Payload-class satellites include a variety of spacecraft equipped with specific instruments for various scientific and technological missions. These include communications satellites like Starlink; space stations such as the ISS; scientific satellites like the Hubble; Earth observation satellites from companies like Planet Labs, Umbra, and HawkEye 360; GPS; miniature CubeSats for education and research; and military/defense satellites.

Loading next visibility...
Identifier
66293, 2025-248A
Orbit
LEO
Country
Flag of KRKR / SKOR
Related business
Manufacturer
KAI
Mission
Operational Defense Radar Imaging
Bus & Motor
CAS500?, Unknown motor
Mass
~800 kg wet, ~750 kg dry
Launch date (UTC)
2025-11-02 (8 months ago)
Launch vehicle
FALCON 9
Launch site
Air Force Eastern Test Range (AFETR)
Object type
Payload
Rocket body
Debris
Shape & HBR
Hex Box + 3 Pan, 10.0 m
Radar Cross Section
10.467 m²

Expand to show TLE details & history
Last TLE update: 5 months ago

TLE from 5 months ago
0 KORSAT-4
1 66293U 25248A   26030.25002315  .00040020  00000-0  30774-2 0  9995
2 66293  45.4075 154.9569 0007182 284.5180 272.2053 15.01133277  2696
Epoch: 2026-01-30T06:00Z
TLE epoch observation values (Epoch: 2026-01-30T06:00:02.000Z)
Latitude
-11.89399°
Longitude
127.3756°
Altitude
565.557 km
Speed
7.579 km/s
True Right ascension
23h 07m 30s
True Declination
-11° 49' 23"
Sunlit
Object was in daylight at epoch
Visualization orbit readout
Latitude
Unknown
Longitude
Unknown
Altitude
Unknown
Speed
Unknown
Apparent Right ascension
Unknown
Apparent Declination
Unknown
Sunlit
N/A
Visualization observer readout
Local Sidereal Time
07:13:10
Azimuth
Unknown
Elevation
Unknown
Doppler factor
Unknown
Orbital elements
Apogee altitude
569.91 km
Perigee altitude
559.937 km
Semi-major axis
6,943.06 km
Eccentricity
0.00072
Inclination
45.4075°
RAAN
154.9569°
Arg. of periapsis
284.518°
True anomaly
272.12306°
Mean anomaly
272.2053°
Eccentric anomaly
272.16418°
Mean motion
3.7516 °/min
Orbital period
95.96 mins
BSTAR
0.0030774
Loading maneuver chart data...
Computing Atmospheric mass density...
Loading historical data...
Loading historical data...
Loading historical data...
Loading historical data...
Loading historical data...
Loading historical data...
Loading historical data...

Documentation

Showing up to 5 results
|